Temp
-12 -12 -12 -11 -11 -11 -11 -11 -11 -11 -11 -11 -11 -11 -11 -11 -11 -11 -11 -11 -12 -11 -12 -12 -12 -12 -12 -12 -12 -12 -13 -13 -13 -13 -13 -13 -13 -13 -13 -13 -13 -13 -14
-12 -12 -12 -12 -11 -11 -11 -11 -11 -11 -11 -11 -11 -11 -11 -11 -11 -11 -11 -11 -12 -12 -12 -12 -12 -12 -12 -12 -13 -13 -13 -13 -13 -13 -13 -13 -13 -13 -13 -14 -14 -13 -14
-13 -12 -12 -12 -11 -11 -11 -11 -11 -11 -11 -11 -10 -11 -11 -11 -12 -11 -11 -12 -12 -12 -12 -12 -12 -12 -12 -13 -13 -13 -13 -13 -13 -13 -13 -13 -13 -14 -13 -14 -14 -13 -14
-13 -12 -12 -12 -11 -11 -11 -11 -11 -11 -11 -11 -11 -11 -11 -11 -11 -11 -12 -12 -11 -11 -11 -12 -12 -12 -12 -13 -13 -13 -13 -13 -13 -13 -13 -13 -13 -13 -14 -14 -13 -13 -14
-12 -12 -12 -12 -11 -11 -11 -11 -11 -11 -11 -11 -11 -11 -11 -11 -11 -11 -12 -12 -12 -12 -12 -12 -12 -13 -13 -13 -13 -13 -13 -14 -14 -14 -13 -13 -13 -13 -14 -14 -14 -14 -14
-12 -12 -12 -12 -11 -11 -11 -11 -11 -11 -11 -11 -11 -11 -12 -12 -12 -12 -12 -12 -13 -13 -13 -13 -13 -13 -13 -13 -13 -14 -14 -14 -14 -14 -14 -14 -14 -14 -14 -14 -14 -14 -14
-12 -12 -12 -11 -11 -11 -11 -11 -11 -11 -11 -11 -12 -12 -12 -12 -12 -12 -13 -13 -13 -13 -14 -14 -14 -14 -13 -14 -14 -14 -14 -14 -14 -14 -14 -14 -15 -15 -14 -15 -14 -14 -14
-12 -12 -12 -12 -12 -12 -12 -12 -12 -12 -12 -12 -12 -12 -12 -13 -13 -13 -13 -13 -13 -14 -14 -14 -14 -14 -14 -15 -15 -14 -14 -15 -15 -15 -15 -14 -15 -15 -14 -15 -14 -15 -15
-12 -12 -12 -12 -12 -12 -12 -12 -12 -12 -12 -12 -12 -12 -13 -13 -13 -13 -13 -14 -14 -14 -14 -14 -15 -15 -15 -15 -15 -15 -15 -15 -15 -15 -15 -14 -15 -15 -15 -15 -15 -15 -16
-13 -13 -13 -13 -13 -13 -12 -12 -13 -12 -12 -12 -13 -13 -13 -13 -14 -14 -15 -15 -15 -15 -15 -15 -15 -15 -15 -15 -15 -15 -15 -15 -15 -15 -15 -15 -15 -15 -16 -16 -16 -16 -16
-14 -13 -13 -13 -13 -13 -13 -12 -13 -13 -13 -13 -13 -13 -14 -14 -15 -15 -16 -16 -16 -16 -16 -16 -16 -16 -16 -16 -16 -16 -16 -16 -16 -16 -16 -15 -15 -15 -16 -16 -16 -17 -17
-14 -14 -13 -13 -13 -13 -12 -12 -13 -13 -13 -13 -14 -14 -15 -15 -15 -16 -16 -17 -18 -18 -18 -18 -18 -18 -17 -17 -17 -17 -16 -16 -16 -15 -15 -15 -15 -15 -16 -16 -16 -17 -17
-14 -13 -13 -13 -13 -13 -12 -13 -13 -13 -13 -13 -14 -14 -15 -15 -16 -17 -17 -19 -20 -20 -20 -20 -20 -20 -19 -18 -18 -18 -17 -17 -16 -16 -16 -16 -15 -15 -16 -16 -16 -17 -17
-14 -14 -13 -13 -13 -13 -13 -13 -13 -13 -13 -14 -14 -14 -15 -15 -16 -17 -17 -18 -20 -20 -20 -21 -20 -20 -19 -19 -19 -18 -18 -17 -17 -17 -16 -16 -16 -17 -16 -17 -17 -17 -17
-14 -14 -13 -13 -13 -13 -13 -13 -13 -13 -13 -14 -14 -15 -15 -15 -16 -17 -18 -18 -19 -20 -20 -20 -20 -20 -20 -20 -19 -19 -18 -18 -17 -17 -17 -16 -17 -17 -17 -17 -17 -17 -17
-14 -14 -14 -14 -14 -14 -14 -13 -14 -14 -13 -13 -14 -14 -15 -16 -16 -17 -18 -18 -19 -19 -20 -20 -20 -20 -20 -19 -19 -18 -18 -17 -17 -17 -17 -17 -17 -17 -17 -17 -17 -17 -17
-15 -14 -14 -14 -14 -14 -14 -14 -13 -14 -14 -14 -14 -14 -15 -15 -16 -17 -17 -18 -18 -19 -19 -19 -19 -18 -18 -18 -18 -18 -18 -17 -17 -17 -17 -17 -17 -17 -17 -18 -17 -19 -19
-14 -14 -14 -14 -14 -14 -14 -14 -14 -14 -14 -14 -14 -15 -15 -15 -16 -17 -17 -18 -18 -18 -19 -19 -19 -19 -18 -19 -18 -18 -17 -18 -17 -17 -18 -17 -18 -17 -18 -19 -19 -18 -19
-15 -15 -15 -15 -15 -14 -14 -14 -14 -15 -14 -14 -14 -15 -15 -15 -16 -16 -17 -17 -18 -18 -18 -18 -18 -18 -18 -18 -18 -18 -18 -18 -18 -18 -18 -17 -18 -19 -19 -19 -19 -19 -19
-15 -15 -15 -15 -15 -15 -15 -15 -15 -15 -15 -15 -15 -15 -15 -16 -16 -16 -16 -17 -17 -18 -18 -18 -18 -18 -18 -18 -18 -18 -18 -18 -18 -18 -19 -19 -19 -19 -19 -19 -19 -19 -19
-16 -16 -15 -15 -15 -15 -15 -15 -15 -15 -15 -15 -16 -16 -16 -16 -16 -16 -17 -17 -18 -18 -18 -18 -18 -18 -18 -18 -18 -19 -19 -19 -19 -19 -19 -19 -19 -19 -19 -19 -20 -20 -19
-17 -17 -16 -16 -15 -15 -15 -15 -16 -15 -16 -16 -16 -16 -16 -16 -16 -17 -17 -17 -18 -18 -18 -18 -18 -19 -19 -19 -19 -19 -19 -19 -19 -19 -19 -19 -19 -20 -20 -20 -19 -20 -20
-17 -17 -17 -17 -16 -16 -16 -16 -16 -16 -16 -16 -16 -16 -16 -17 -17 -17 -17 -18 -18 -18 -18 -19 -19 -19 -19 -19 -19 -19 -19 -19 -19 -19 -19 -19 -20 -20 -20 -20 -20 -20 -21
-17 -17 -17 -17 -17 -17 -17 -17 -17 -16 -16 -16 -16 -17 -17 -17 -17 -18 -18 -18 -18 -19 -19 -19 -19 -19 -20 -20 -20 -20 -20 -20 -20 -20 -20 -20 -20 -20 -20 -20 -21 -21 -22
-17 -17 -17 -17 -17 -17 -17 -17 -17 -17 -17 -17 -17 -17 -17 -17 -18 -18 -18 -19 -19 -19 -19 -19 -20 -20 -20 -20 -20 -20 -20 -20 -20 -20 -20 -20 -20 -20 -20 -21 -21 -22 -24
-17 -17 -18 -18 -18 -18 -17 -17 -17 -17 -17 -17 -17 -17 -18 -18 -18 -19 -19 -19 -19 -19 -19 -20 -20 -20 -20 -20 -20 -20 -20 -20 -20 -20 -20 -20 -21 -21 -21 -21 -22 -24 -25
Height
5779 5782 5786 5790 5793 5796 5798 5799 5800 5801 5799 5799 5799 5799 5800 5798 5798 5798 5797 5797 5797 5797 5798 5798 5798 5796 5796 5796 5795 5795 5796 5794 5794 5793 5793 5791 5792 5790 5788 5786 5785 5784 5782
5771 5775 5778 5781 5784 5787 5789 5790 5791 5792 5791 5791 5790 5789 5788 5789 5789 5788 5788 5788 5788 5788 5788 5788 5787 5787 5786 5786 5786 5786 5785 5785 5785 5785 5784 5784 5784 5782 5779 5778 5777 5776 5774
5764 5767 5770 5773 5775 5777 5779 5780 5781 5782 5782 5782 5781 5781 5781 5781 5780 5779 5778 5776 5775 5775 5776 5777 5777 5778 5776 5777 5776 5776 5775 5775 5775 5775 5775 5775 5775 5773 5771 5769 5768 5766 5765
5758 5760 5763 5765 5767 5769 5770 5770 5771 5771 5771 5771 5772 5772 5772 5771 5771 5769 5767 5765 5765 5764 5765 5766 5765 5766 5765 5765 5766 5765 5764 5764 5765 5764 5764 5764 5764 5762 5762 5759 5758 5758 5756
5751 5753 5755 5757 5758 5759 5760 5761 5761 5761 5761 5761 5761 5760 5760 5759 5758 5757 5756 5755 5755 5753 5752 5752 5751 5753 5752 5752 5752 5752 5753 5753 5752 5753 5753 5753 5753 5752 5751 5750 5749 5747 5746
5743 5744 5746 5748 5750 5751 5752 5752 5752 5752 5751 5751 5750 5749 5748 5748 5746 5745 5744 5742 5742 5742 5740 5739 5738 5739 5739 5739 5739 5739 5740 5741 5740 5742 5742 5742 5742 5742 5739 5738 5738 5736 5735
5734 5737 5739 5740 5741 5742 5743 5743 5743 5742 5742 5741 5740 5738 5737 5735 5734 5731 5729 5727 5727 5726 5726 5724 5724 5724 5725 5725 5725 5726 5727 5728 5728 5729 5731 5731 5730 5729 5728 5728 5726 5723 5722
5727 5729 5731 5732 5732 5733 5733 5733 5733 5732 5731 5730 5728 5726 5724 5722 5719 5716 5714 5713 5711 5710 5709 5709 5709 5710 5710 5711 5712 5713 5714 5715 5717 5719 5720 5718 5715 5714 5715 5716 5713 5712 5710
5720 5721 5723 5723 5724 5724 5724 5723 5722 5721 5720 5718 5716 5714 5711 5708 5704 5700 5697 5694 5692 5691 5691 5692 5693 5694 5695 5696 5697 5699 5701 5703 5704 5707 5705 5702 5702 5702 5702 5703 5701 5699 5696
5712 5713 5715 5715 5715 5715 5715 5714 5713 5711 5709 5707 5704 5700 5696 5693 5689 5684 5679 5676 5672 5670 5669 5670 5672 5674 5677 5680 5683 5686 5689 5690 5692 5693 5691 5689 5681 5684 5688 5689 5687 5684 5681
5704 5706 5707 5707 5708 5708 5707 5706 5704 5702 5698 5695 5692 5689 5685 5681 5676 5670 5664 5657 5652 5648 5646 5647 5649 5654 5658 5662 5666 5670 5674 5677 5679 5681 5683 5684 5681 5674 5673 5671 5672 5669 5667
5698 5699 5699 5700 5700 5700 5699 5697 5695 5693 5690 5687 5683 5679 5674 5670 5662 5655 5646 5636 5629 5625 5624 5625 5628 5632 5638 5643 5648 5653 5658 5662 5666 5669 5669 5669 5668 5667 5665 5662 5659 5656 5653
5692 5693 5693 5693 5694 5693 5691 5689 5687 5684 5681 5677 5673 5668 5663 5656 5648 5638 5628 5617 5609 5604 5603 5606 5609 5613 5619 5626 5633 5638 5643 5647 5652 5654 5655 5655 5655 5653 5651 5649 5647 5643 5640
5686 5687 5687 5687 5687 5685 5683 5681 5679 5676 5674 5669 5663 5658 5652 5645 5637 5628 5619 5610 5600 5593 5592 5593 5597 5602 5607 5612 5620 5627 5631 5635 5639 5641 5643 5643 5642 5642 5640 5638 5634 5630 5627
5680 5681 5680 5680 5679 5678 5676 5675 5672 5669 5666 5660 5654 5650 5644 5638 5631 5621 5613 5603 5594 5588 5586 5585 5588 5593 5597 5604 5609 5618 5622 5623 5628 5631 5632 5633 5631 5629 5627 5625 5621 5617 5614
5674 5675 5674 5674 5673 5671 5669 5668 5665 5661 5659 5653 5649 5644 5638 5633 5626 5618 5609 5600 5592 5584 5582 5579 5581 5585 5591 5597 5603 5610 5614 5616 5618 5621 5622 5621 5620 5618 5615 5612 5609 5605 5601
5669 5669 5669 5668 5667 5664 5663 5662 5659 5656 5653 5649 5646 5640 5633 5627 5622 5616 5608 5601 5593 5587 5584 5582 5585 5588 5591 5596 5601 5603 5607 5610 5611 5612 5612 5611 5609 5607 5604 5601 5597 5593 5589
5663 5662 5662 5662 5660 5659 5658 5656 5654 5651 5648 5644 5640 5636 5631 5624 5619 5614 5608 5602 5596 5592 5587 5587 5589 5589 5591 5593 5595 5598 5602 5604 5605 5604 5604 5602 5599 5597 5593 5590 5587 5583 5578
5657 5657 5656 5656 5655 5653 5652 5651 5649 5646 5642 5639 5636 5632 5627 5623 5618 5613 5607 5602 5598 5593 5591 5589 5589 5590 5592 5594 5595 5596 5597 5598 5597 5596 5594 5592 5589 5588 5586 5582 5576 5571 5565
5652 5652 5651 5651 5650 5649 5648 5646 5643 5641 5637 5636 5632 5629 5626 5621 5617 5612 5607 5603 5599 5595 5592 5592 5591 5592 5592 5592 5591 5591 5591 5591 5590 5587 5586 5584 5582 5579 5575 5570 5564 5559 5553
5647 5646 5646 5646 5645 5644 5642 5641 5638 5637 5635 5632 5629 5626 5623 5620 5615 5611 5607 5604 5601 5598 5596 5594 5593 5591 5590 5589 5588 5588 5586 5585 5583 5582 5579 5577 5573 5569 5564 5559 5553 5546 5537
5643 5642 5641 5640 5640 5638 5637 5636 5634 5633 5631 5629 5627 5624 5621 5617 5614 5610 5607 5604 5601 5598 5595 5593 5591 5590 5588 5587 5585 5583 5581 5579 5577 5575 5572 5568 5564 5559 5554 5547 5540 5532 5524
5639 5638 5637 5635 5635 5633 5632 5631 5631 5629 5627 5626 5623 5621 5619 5616 5612 5609 5606 5603 5600 5597 5594 5592 5590 5588 5586 5584 5582 5580 5578 5575 5572 5568 5564 5559 5554 5549 5542 5534 5527 5518 5509
5635 5634 5633 5632 5631 5630 5628 5628 5627 5625 5624 5622 5621 5618 5616 5613 5610 5607 5604 5601 5598 5595 5592 5588 5586 5583 5581 5579 5577 5574 5571 5568 5565 5560 5555 5550 5544 5537 5530 5522 5513 5504 5497
5630 5630 5629 5628 5627 5627 5626 5624 5623 5622 5621 5619 5617 5615 5612 5610 5606 5603 5600 5597 5593 5590 5587 5585 5582 5579 5577 5574 5571 5568 5564 5559 5554 5549 5544 5538 5531 5524 5516 5508 5500 5492 5485
5626 5626 5625 5624 5623 5623 5623 5622 5620 5619 5618 5616 5614 5611 5609 5605 5602 5599 5596 5593 5590 5586 5583 5580 5577 5574 5571 5568 5564 5560 5556 5551 5545 5539 5533 5527 5520 5512 5505 5496 5487 5479 5474
Wind_Speed
41 41 38 39 39 38 39 39 40 39 41 43 43 43 44 45 46 46 48 48 47 47 47 47 46 45 44 43 43 41 39 39 37 36 33 34 32 30 30 29 30 32 35
40 40 40 39 39 39 40 40 40 41 40 43 44 45 47 46 46 47 48 48 48 49 49 50 49 49 48 48 46 45 44 43 41 40 38 36 34 32 33 31 32 33 35
39 40 40 40 40 40 41 41 41 42 42 42 44 46 47 48 48 48 48 49 51 51 52 51 52 52 51 50 48 49 48 47 46 44 43 41 37 36 36 37 37 38 38
39 40 41 42 42 42 43 43 44 44 44 44 44 45 47 49 49 49 51 53 53 54 54 53 55 55 55 52 50 51 50 50 49 48 45 44 42 41 39 40 41 40 42
39 40 42 42 42 42 42 42 43 43 44 44 44 46 48 50 53 53 52 51 53 56 57 56 57 55 57 55 54 54 54 53 52 50 48 47 46 44 44 43 42 44 45
38 40 41 41 40 40 40 40 41 41 42 43 44 45 46 48 50 52 54 55 52 53 58 60 60 60 57 58 58 59 58 55 54 52 51 49 49 49 50 48 45 48 48
38 38 38 38 38 38 38 37 38 39 40 42 43 44 46 48 49 51 53 55 56 56 56 60 63 65 64 61 62 62 60 58 56 53 53 53 54 55 56 50 50 53 56
35 34 35 34 34 35 36 37 39 40 41 42 43 45 48 51 54 57 59 60 61 62 62 61 62 63 66 67 67 65 62 61 57 54 54 58 59 51 47 56 52 62 59
31 32 32 32 34 35 35 36 38 40 41 44 46 48 50 53 56 59 62 64 66 67 69 69 68 66 65 64 63 64 64 61 59 54 62 48 52 53 56 61 62 60 56
29 30 30 30 31 32 33 36 38 39 41 42 45 48 49 52 55 58 61 64 66 68 69 69 69 69 69 67 65 62 59 59 58 57 60 57 49 44 45 57 61 60 62
27 28 28 29 31 31 30 32 35 37 39 41 44 47 48 49 50 55 60 62 66 69 71 71 69 67 65 64 62 63 63 63 62 61 59 62 63 53 52 51 63 58 57
28 29 30 28 25 24 24 27 31 34 36 38 40 40 36 43 49 52 60 65 65 69 69 66 64 66 65 62 57 55 54 55 56 58 56 56 57 60 56 60 50 60 58
27 28 24 23 22 23 26 29 29 30 32 33 31 31 36 42 46 44 49 48 49 50 57 60 57 54 56 58 52 47 45 45 47 48 48 49 47 49 50 53 60 60 58
24 22 21 22 24 25 26 25 25 24 23 28 34 35 39 40 43 38 45 44 42 39 40 42 47 50 46 49 43 42 39 40 41 42 42 39 39 42 49 50 52 53 51
21 19 19 20 22 22 20 19 15 14 20 24 27 31 35 34 34 35 35 34 30 27 27 31 35 40 38 36 34 35 33 30 32 34 35 40 39 43 47 50 54 53 53
16 17 18 20 21 16 16 17 14 10 14 18 20 21 24 25 25 26 21 22 24 10 18 22 23 18 17 14 17 24 22 20 25 30 35 39 40 42 42 45 49 51 55
18 17 17 16 17 15 12 14 15 13 11 16 17 15 15 18 19 14 14 17 16 10 14 2 12 6 15 15 20 20 20 23 27 33 38 36 38 40 42 45 43 41 42
18 20 20 19 18 19 14 15 17 15 18 16 14 15 12 15 13 11 15 14 12 11 10 7 13 1 14 22 13 18 29 27 30 34 34 37 38 39 37 35 37 41 44
15 16 19 19 17 15 17 14 15 14 13 11 11 14 11 13 14 15 14 17 11 8 8 7 7 4 6 12 18 19 22 25 28 28 33 33 31 31 34 36 40 44 49
21 19 16 17 15 12 14 14 15 12 7 8 9 11 12 9 9 15 15 13 13 13 8 2 5 10 11 15 14 17 22 24 26 25 25 27 29 33 36 40 44 48 52
15 15 17 16 17 19 20 18 14 12 10 12 10 9 10 10 11 13 13 11 12 11 8 7 5 7 9 11 14 16 17 19 21 23 26 30 34 38 42 44 47 51 54
11 14 14 12 12 10 12 13 11 11 11 8 7 8 10 12 14 14 14 13 13 13 13 12 12 12 13 13 15 18 20 22 25 28 31 34 37 40 43 47 52 55 56
11 11 12 12 13 11 10 11 11 8 6 8 7 10 12 14 14 14 13 13 14 14 14 14 13 13 14 16 18 20 22 25 28 31 34 38 39 43 47 49 53 55 55
12 11 12 13 12 11 9 9 9 9 8 8 10 12 14 15 15 14 14 16 16 16 14 14 14 16 17 19 21 23 25 28 31 35 38 40 42 45 48 51 53 55 46
11 11 11 12 12 11 11 11 9 8 8 10 12 14 15 16 16 16 18 20 20 20 19 18 19 20 21 23 25 28 29 32 35 39 41 43 46 47 49 53 56 47 38
14 14 13 14 14 13 11 10 9 9 10 12 14 15 15 16 17 18 20 21 21 21 21 21 22 23 25 27 30 33 35 37 40 42 44 46 47 49 53 56 54 41 37
Wind_Direction
243 245 243 241 243 247 249 250 252 256 261 265 267 268 270 270 269 271 269 269 269 268 267 267 266 265 265 264 266 268 269 268 268 272 274 275 280 285 285 287 292 291 287
246 244 247 248 248 249 250 252 255 259 261 261 261 263 262 264 267 268 271 272 271 269 267 266 264 264 263 262 263 267 266 268 269 271 272 274 277 283 281 282 285 288 289
249 251 253 253 255 256 259 261 263 266 266 265 263 261 263 266 267 270 268 267 265 264 264 264 265 264 264 263 263 265 266 268 268 271 272 273 274 277 281 280 282 286 288
248 252 255 258 259 261 264 265 266 267 269 268 267 265 263 264 266 266 267 268 269 269 268 264 264 264 263 263 263 263 265 267 269 269 270 269 271 271 276 279 280 283 285
248 251 255 259 261 263 264 265 266 267 268 268 268 267 265 264 263 264 265 264 266 266 267 264 261 261 261 261 260 259 263 267 265 267 266 266 268 271 274 276 278 279 280
250 252 255 258 261 263 265 266 267 268 268 268 268 267 267 267 268 268 267 265 263 263 264 265 265 262 261 260 260 261 262 262 263 263 264 266 267 271 276 275 280 279 280
251 253 256 259 261 263 265 265 266 267 269 269 269 270 270 270 268 267 267 267 265 262 258 258 259 261 260 260 262 262 264 264 263 263 266 267 268 266 273 273 283 283 282
250 253 255 256 259 261 264 267 271 274 275 276 276 276 275 276 275 273 271 268 265 264 262 259 257 256 257 258 260 261 262 263 264 262 266 267 269 264 274 278 274 283 279
246 248 251 255 259 264 269 273 275 275 277 280 282 282 282 280 278 277 276 274 272 269 265 262 260 258 257 256 257 260 262 262 263 264 266 267 268 273 268 274 276 282 280
245 248 253 258 263 267 270 274 281 284 284 284 285 286 286 285 284 283 281 277 273 270 267 265 263 260 258 258 257 257 259 261 263 265 269 279 275 272 269 281 281 281 282
249 253 257 259 265 272 275 276 278 281 283 284 286 286 287 288 292 289 284 281 277 274 269 265 262 260 259 258 257 257 258 259 261 263 264 264 269 266 290 278 281 280 282
252 256 260 266 267 271 276 280 282 283 283 284 286 291 295 298 300 292 291 283 281 268 265 264 263 262 259 257 255 255 256 257 261 265 267 269 269 271 273 274 273 279 285
257 260 262 261 265 273 283 283 283 285 289 290 287 290 297 306 308 309 306 294 283 277 267 262 259 255 256 258 256 252 251 253 255 258 260 262 266 269 271 273 276 280 279
257 255 258 262 271 276 278 283 285 286 305 304 291 294 299 309 315 308 299 299 294 283 271 264 261 256 255 253 253 250 248 249 253 257 261 267 267 267 270 274 279 276 279
249 250 260 269 274 273 282 284 289 295 312 330 318 308 304 314 314 317 296 295 293 285 275 263 258 256 255 243 245 251 249 251 259 266 263 259 268 267 269 268 282 287 287
253 257 264 269 267 269 278 274 297 302 321 346 343 327 314 313 319 317 311 308 318 301 284 279 243 232 221 228 246 246 256 255 255 258 261 264 268 272 271 281 286 284 281
254 250 263 274 269 259 289 286 297 312 318 330 333 344 341 322 310 330 339 311 322 321 336 249 250 213 217 223 233 231 242 250 261 260 269 272 269 276 283 278 282 300 301
263 258 260 269 269 264 279 283 299 303 303 316 324 336 348 359 343 326 338 338 326 319 316 276 221 271 216 213 255 255 245 270 268 269 264 276 281 276 289 302 296 299 301
262 263 252 270 273 272 269 269 290 297 303 306 327 330 343 342 359 352 345 352 352 0 8 335 324 333 274 264 256 261 268 267 280 272 274 280 292 299 295 297 299 304 311
264 266 264 259 266 264 257 271 298 294 301 302 326 327 341 350 0 0 4 353 20 20 311 341 286 255 261 265 287 270 259 265 275 289 298 295 295 297 298 302 307 307 307
277 269 265 266 259 257 266 280 281 274 273 309 325 337 328 338 339 340 350 343 339 350 352 342 305 283 281 289 298 301 298 299 298 298 298 301 304 303 303 304 305 307 312
282 265 252 255 257 258 269 270 281 277 276 290 300 318 325 330 330 330 331 334 337 338 335 329 323 318 313 307 305 305 303 303 303 303 303 304 303 300 301 305 311 313 314
277 281 270 262 258 256 252 260 272 269 275 284 299 314 318 322 323 323 325 329 330 328 321 316 312 310 308 306 305 303 303 302 304 304 306 306 302 301 307 310 314 318 320
271 277 278 276 273 264 255 256 265 278 281 288 303 314 318 323 323 321 322 323 327 326 322 319 316 314 311 310 307 306 306 305 304 304 305 306 304 302 308 312 317 319 313
267 269 275 273 268 265 264 263 265 270 283 295 307 315 319 319 318 318 320 324 327 327 323 318 315 312 310 310 306 305 304 305 306 307 308 308 308 307 310 314 316 314 299
271 268 272 273 265 261 262 258 262 274 289 296 304 308 313 320 318 316 317 319 320 321 317 312 310 311 311 312 309 307 305 305 306 307 309 308 308 310 314 315 315 303 289